Location: Unspecified
(48.2082°N, 0.0000°E)
Time: 06:52:55
(UTC+00:00)

A-11 Canister half - Pass Details

Date: 25 June 2019
Orbit: 1514 x 1685 km, 47.2° (Epoch: 17 July)

Event Time Altitude Azimuth Distance (km) Brightness Sun altitude
Rises 16:32:50 0° 290° (WNW) 4,797 12.6 32.0°
Reaches altitude 10° 16:36:24 10° 281° (WNW) 3,783 12.6 31.4°
Maximum altitude 16:44:21 31° 224° (SW) 2,441 11.0 30.1°
Drops below altitude 10° 16:52:08 10° 167° (SSE) 3,681 10.9 28.8°
Sets 16:55:34 0° 157° (SSE) 4,649 11.3 28.2°
